星链-6237 (STARLINK-6237 )

导读

STARLINK-6237是美国SpaceX公司星链星座中的低轨通信卫星,于2023年6月22日发射升空。作为星链互联网项目的一员,它运行在近地轨道,采用平板设计搭配太阳电池阵,搭载Ku/Ka波段通信载荷与霍尔推进器,具备自主避撞能力,旨在为全球提供高速宽带互联网服务,尤其覆盖偏远地区,是SpaceX大规模卫星组网建设的重要组成部分。

Basic Information
目录编号:
57055
目录名称:
STARLINK-6237
国际标识:
2023-088H
轨道中心:
EARTH
卫星名称:
星链-6237
卫星全名:
星链-6237 (STARLINK-6237 )
卫星状态:
在轨 (已飞行1088 天)
发射日期:
2023-06-22 UTC
国别 :
美国 (US)
星等 :
--
Orbit Information
数据来源 国际轨道数据 AOE轨道数据
星历时间 2026-06-14T09:29:59+0800
20小时前
查看轨道信息
2026-06-13T16:00:00+0800
1天前
查看轨道信息
半长轴 6861.029km 6861.209km
偏心率 0.0004702 0.0004299
轨道倾角 43.011° 43.006°
近地点辐角 280.908° 288.854°
升交点赤经 286.210° 290.337°
平近点角 79.124° 16.293°
近地点 479.665km 480.122km
远地点 486.119km 486.022km
周期 94.263分钟 94.267分钟
每日圈数 15.276327 15.275726
Detailed Information
固有亮度:
5
最大亮度:
2.4
卫星平台:
Starlink v1.5
覆盖范围:
全球
运营商:
太空探索技术公司
运营商所在国:
美国
制造商(研发单位):
太空探索技术公司
制造商所在国:
美国
使用方式:
暂无
Satellite Introduction
星链(Starlink)计划是由太空探索技术公司(SpaceX)提出的一个巨型低轨卫星互联网星座项目,计划在2019年至2024年间在太空搭建由约1.2万颗卫星组成的“星链”网络,其中1584颗将部署在地球上空550千米处的近地轨道,并从2020年开始工作。该卫星仍在工作。
2D Orbit Map
3D Orbit Map
Orbit Altitude Analysis Chart
Orbit Inclination Analysis Chart
Orbit Comprehensive Analysis Chart
View Comprehensive Chart